Home   Weather   Denver   Past weeks

Flag for USA Past Weather in Denver, Colorado, USA — Yesterday and Last 2 Weeks

Now
71 °F

Passing clouds.


Feels Like: 77 °F
Forecast: 59 / 88 °F
Wind: 14 mph from South

Location: Buckley Air Force Base

Current Time: Aug 19, 2017 at 1:30:14 am

Latest Report: Aug 18, 2017 at 11:58 pm


Visibility: 10 mi

Pressure: 29.93 "Hg (24.88 "Hg at 1593m altitude)

Humidity: 43%

Dew Point: 47 °F

Location of DenverLocation

Past Weather in Denver — Graph

°F

Denver Temperature Yesterday

Maximum temperature yesterday: 87 °F (at 3:58 pm)
Minimum temperature yesterday: 54 °F (at 6:58 am)
Average temperature yesterday: 71 °F

High & Low Weather Summary for the Past Weeks

 TemperatureHumidityPressure
High89 °F (Aug 4, 2:58 pm)100% (Aug 4, 3:23 am)30.20 "Hg (Aug 4, 3:23 am)
Low52 °F (Aug 4, 3:23 am)20% (Aug 4, 2:58 pm)29.67 "Hg (Aug 15, 3:58 pm)
Average66 °F65%29.96 "Hg
* Reported Aug 3 11:58 pm — Aug 18 11:58 pm, Denver. Weather by CustomWeather, © 2017

Note: Actual official high and low records may vary slightly from our data, if they occured in-between our weather recording intervals... More about our weather records

Advertising

Denver Weather History for the Previous 24 Hours

Scroll right to see more
 ConditionsComfort  
Time TempWeatherWind HumidityBarometerVisibility
11:58 pm
Fri, Aug 18
71 °FPassing clouds.14 mph43%29.93 "Hg10 mi
10:58 pm70 °FPassing clouds.15 mph45%29.94 "Hg10 mi
9:58 pm71 °FPassing clouds.9 mph43%29.94 "Hg10 mi
8:58 pm73 °FPassing clouds.12 mph42%29.95 "Hg10 mi
7:58 pm73 °FPassing clouds.10 mph42%29.95 "Hg10 mi
6:58 pm82 °FPassing clouds.8 mph29%29.95 "Hg10 mi
5:58 pm87 °FPassing clouds.5 mph22%29.92 "Hg10 mi
4:58 pm86 °FPassing clouds.3 mph21%29.92 "Hg10 mi
3:58 pm87 °FPassing clouds.5 mph21%29.93 "Hg10 mi
2:58 pm85 °FPassing clouds.5 mph21%29.95 "Hg10 mi
1:58 pm83 °FPassing clouds.5 mph21%29.96 "Hg10 mi
12:58 pm82 °FPassing clouds.No wind23%29.98 "Hg10 mi
11:58 am80 °FPassing clouds.5 mph30%30.01 "Hg10 mi
10:58 am73 °FPassing clouds.3 mph32%30.03 "Hg10 mi
9:58 am69 °FPassing clouds.3 mph45%30.05 "Hg10 mi
8:58 am64 °FPassing clouds.No wind54%30.07 "Hg10 mi
7:58 am60 °FPassing clouds.No wind64%30.06 "Hg10 mi
6:58 am54 °FPassing clouds.6 mph76%30.06 "Hg10 mi
5:58 am56 °FPassing clouds.No wind65%30.01 "Hg10 mi
4:58 am58 °FPassing clouds.No wind62%30.00 "Hg10 mi
3:58 am58 °FPassing clouds.5 mph56%29.98 "Hg10 mi
2:58 am60 °FClear.6 mph55%29.96 "Hg10 mi
1:58 am62 °FClear.6 mph48%29.96 "Hg10 mi
Weather by CustomWeather, © 2017

See weather overviewHow to use our weather pages